Hourly Data Report for September 30, 2003

TORONTO CITY
ONTARIO

43°40'00.000" N
79°24'00.000" W
112.50 m
6158355
71508
XTO

Download Data

Hourly Data (September 2003)
Hourly Data Report for September 30, 2003
TIME
LST
Temp Definition
°C
Dew Point Definition
°C
Rel Hum Definition
%
Precip. Amount Definition
mm

Wind Dir Definition
10's deg

Wind Spd Definition
km/h
Visibility Definition
km
Stn Press Definition
kPa
Hmdx Definition


Wind Chill Definition


Weather Definition


00:00 8.5 3.9 73   LegendMM LegendMM LegendMM 100.46     LegendNANA
01:00 8.9 4.2 72   LegendMM LegendMM LegendMM 100.48     LegendNANA
02:00 7.8 4.2 78   LegendMM LegendMM LegendMM 100.50     LegendNANA
03:00 6.9 3.9 81   LegendMM LegendMM LegendMM 100.52     LegendNANA
04:00 6.4 3.9 84   LegendMM LegendMM LegendMM 100.55     LegendNANA
05:00 5.5 3.8 89   LegendMM LegendMM LegendMM 100.55     LegendNANA
06:00 5.9 3.7 86   LegendMM LegendMM LegendMM 100.52     LegendNANA
07:00 6.6 3.4 80   LegendMM LegendMM LegendMM 100.51     LegendNANA
08:00 8.1 3.3 72   LegendMM LegendMM LegendMM 100.52     LegendNANA
09:00 10.5 4.0 64   LegendMM LegendMM LegendMM 100.47     LegendNANA
10:00 13.2 5.2 58   LegendMM LegendMM LegendMM 100.43     LegendNANA
11:00 13.1 6.3 63   LegendMM LegendMM LegendMM 100.37     LegendNANA
12:00 14.0 6.0 59   LegendMM LegendMM LegendMM 100.35     LegendNANA
13:00 13.0 6.0 62   LegendMM LegendMM LegendMM 100.36     LegendNANA
14:00 13.3 5.5 59   LegendMM LegendMM LegendMM 100.33     LegendNANA
15:00 12.3 2.5 51   LegendMM LegendMM LegendMM 100.39     LegendNANA
16:00 11.2 2.4 55   LegendMM LegendMM LegendMM 100.46     LegendNANA
17:00 11.4 1.1 49   LegendMM LegendMM LegendMM 100.50     LegendNANA
18:00 10.8 2.1 55   LegendMM LegendMM LegendMM 100.51     LegendNANA
19:00 10.7 2.4 56   LegendMM LegendMM LegendMM 100.56     LegendNANA
20:00 10.0 2.7 60   LegendMM LegendMM LegendMM 100.64     LegendNANA
21:00 9.7 2.5 61   LegendMM LegendMM LegendMM 100.63     LegendNANA
22:00 9.2 2.4 62   LegendMM LegendMM LegendMM 100.63     LegendNANA
23:00 8.5 2.6 66   LegendMM LegendMM LegendMM 100.60     LegendNANA

Notes on Data Quality.

Legend

  • E = Estimated
  • M = Missing
  • NA = Not Available*
  • [empty] = Indicates an unobserved value
Date modified: